Overview Statistics Trail Chart Weather Telemetry Raw packets
 

This is the latest recevied weather packets stored in our database for station/object GBTWP-2. If no packets are shown the sender has not sent any weather packets the latest 10 day(s).

<< 66 67 68 69 70 71 72 >>
Time Temp. Humidity Pressure Rain* Wind** Luminosity Snow
1788215221 23.89° C 81% 1016.7 hPa 0 mm - 60 W/m² -
1788214920 23.89° C 80% 1017.2 hPa 0 mm - 55 W/m² -
1788214621 24.44° C 80% 1016.9 hPa 0 mm - 64 W/m² -
1788214319 24.44° C 79% 1017 hPa 0 mm - 79 W/m² -
1788214020 24.44° C 80% 1017.4 hPa 0 mm - 118 W/m² -
1788213718 24.44° C 81% 1017.3 hPa 0 mm - 135 W/m² -
1788213420 23.89° C 82% 1017.5 hPa 0 mm - 165 W/m² -
1788213120 23.33° C 84% 1017.4 hPa 0 mm - 140 W/m² -
1788212818 23.89° C 83% 1017.5 hPa 0 mm - 72 W/m² -
1788212520 24.44° C 81% 1017.7 hPa 0 mm - 38 W/m² -
1788212221 24.44° C 80% 1017.8 hPa 0 mm - 54 W/m² -
1788211920 24.44° C 81% 1017.7 hPa 0 mm - 77 W/m² -
1788211620 24.44° C 82% 1017.8 hPa 0 mm - 107 W/m² -
1788211320 24.44° C 84% 1017.7 hPa 0 mm - 81 W/m² -
1788211020 24.44° C 83% 1017.1 hPa 0 mm - 68 W/m² -
1788210721 23.89° C 85% 1017.6 hPa 0 mm - 77 W/m² -
1788210420 23.89° C 86% 1017.4 hPa 0 mm - 82 W/m² -
1788210120 23.89° C 87% 1017.8 hPa 0 mm - 81 W/m² -
1788209820 23.89° C 87% 1018.1 hPa 0 mm - 58 W/m² -
1788209532 23.89° C 86% 1017.7 hPa 0 mm - 57 W/m² -
1788209223 23.89° C 86% 1017.8 hPa 0 mm - 72 W/m² -
1788208920 23.89° C 86% 1017.9 hPa 0 mm - 80 W/m² -
1788208852 23.89° C 86% 1017.9 hPa 0 mm - 79 W/m² -
1788208372 23.89° C 85% 1017.9 hPa 0 mm - 70 W/m² -
1788208130 24.44° C 84% 1017.9 hPa 0 mm - 79 W/m² -

* Rain latest hour (hover to see other rain measurements)
** Current wind speed in m/s (hover to see current wind gust speed)